Terminal Aerodrome Forecast
Issued by NWS

Home | Current Version | Previous Version | Text Only | Print | Product List | Glossary On
Versions: 1 2 3 4 5 6 7 8 9 10 11 12 13 14 15 16 17 18 19 20 21 22 23 24 25 26 27 28
000
FTUS44 KFWD 192300
TAFGKY
TAF
KGKY 192339Z 2000/2024 14009KT P6SM SCT150 BKN250
     FM200900 16006KT P6SM BKN050
     FM201500 17012KT P6SM SCT050 SCT100 BKN200=

USA.gov is the U.S. government's official web portal to all federal, state and local government web resources and services.